Weather History for Franklin, NC

Change the Weather History Date:

Saturday, January 19, 2013

  Actual Average (KTOC) Record (KTOC)
Temperature  
Mean Temperature 38 °F -  
Max Temperature 55 °F 52 °F 58 °F (2014)
Min Temperature 22 °F 33 °F 29 °F (2014)
Degree Days  
Heating Degree Days 26    
Moisture  
Dew Point 25 °F    
Average Humidity 77    
Maximum Humidity 97    
Minimum Humidity 22    
Precipitation  
Precipitation 0.00 in - - ()
Sea Level Pressure  
Sea Level Pressure 30.31 in    
Wind  
Wind Speed 1 mph (ENE)    
Max Wind Speed 6 mph    
Max Gust Speed -    
Visibility 9 miles    
Events Fog    
Averages and records for this station are not official NWS values.
T = Trace of Precipitation, MM = Missing Value Source: NWS Daily Summary

Daily Weather History Graph

Daily Weather History Graph

Search for Another Location

Airport:

Trip Planner

Search our weather history database for the weather conditions in past years. The results will help you decide how hot, cold, wet, or windy it might be!

Date:

Astronomy

Jan. 19, 2013 Rise Set
Actual Time 7:40 AM EST 5:49 PM EST
Civil Twilight 7:12 AM EST 6:16 PM EST
Nautical Twilight 6:41 AM EST 6:47 PM EST
Astronomical Twilight 6:11 AM EST 7:17 PM EST
Moon 12:12 PM EST (1/19) 1:16 AM EST (1/19)
Length of Visible Light 11h 03m
Length of Day
10h 08m
First Quarter, 57% of the Moon is Illuminated
Jan 19
First Quarter
Jan 26
Full
Feb 3
Last Quarter
Feb 10
New
Feb 17
First Quarter

Hourly Weather History & Observations

Time (EST) Temp. Windchill Dew Point Humidity Pressure Visibility Wind Dir Wind Speed Gust Speed Precip Events Conditions
12:15 AM 26.2 °F - 25.5 °F 97% 30.44 in 10.0 mi Calm Calm - N/A   Clear
12:35 AM 26.1 °F - 25.3 °F 97% 30.44 in 10.0 mi Calm Calm - N/A   Clear
12:55 AM 25.7 °F - 25.0 °F 97% 30.44 in 10.0 mi Calm Calm - N/A   Clear
1:15 AM 24.8 °F - 23.9 °F 96% 30.44 in 10.0 mi Calm Calm - N/A   Clear
1:35 AM 24.8 °F - 23.9 °F 96% 30.44 in 10.0 mi Calm Calm - N/A   Clear
1:55 AM 24.8 °F - 23.9 °F 96% 30.44 in 10.0 mi Calm Calm - N/A   Clear
2:15 AM 25.2 °F - 24.4 °F 97% 30.44 in 10.0 mi Calm Calm - N/A   Clear
2:35 AM 24.6 °F - 23.7 °F 96% 30.44 in 10.0 mi Calm Calm - N/A   Clear
2:55 AM 24.4 °F - 23.5 °F 96% 30.43 in 10.0 mi Calm Calm - N/A   Clear
3:15 AM 24.1 °F - 23.2 °F 96% 30.43 in 10.0 mi Calm Calm - N/A   Clear
3:35 AM 23.9 °F - 23.0 °F 96% 30.43 in 10.0 mi Calm Calm - N/A   Clear
3:55 AM 23.4 °F - 22.5 °F 96% 30.43 in 10.0 mi Calm Calm - N/A   Clear
4:15 AM 23.0 °F - 22.1 °F 96% 30.43 in 0.8 mi Calm Calm - N/A   Mist
4:35 AM 23.4 °F - 22.6 °F 97% 30.43 in 3.0 mi Calm Calm - N/A   Clear
4:55 AM 23.5 °F - 22.8 °F 97% 30.42 in 7.0 mi Calm Calm - N/A   Clear
5:15 AM 22.6 °F - 21.7 °F 96% 30.42 in 10.0 mi Calm Calm - N/A   Clear
5:35 AM 22.8 °F - 21.9 °F 96% 30.42 in 10.0 mi Calm Calm - N/A   Mostly Cloudy
5:55 AM 23.0 °F - 22.1 °F 96% 30.42 in 10.0 mi Calm Calm - N/A   Overcast
6:15 AM 23.4 °F - 22.5 °F 96% 30.42 in 10.0 mi Calm Calm - N/A   Mostly Cloudy
6:35 AM 22.6 °F - 21.7 °F 96% 30.42 in 10.0 mi Calm Calm - N/A   Mostly Cloudy
7:35 AM 22.1 °F - 21.4 °F 97% 30.42 in 0.5 mi Calm Calm - N/A Fog Light Freezing Fog
7:55 AM 22.1 °F - 21.2 °F 96% 30.42 in 0.5 mi Calm Calm - N/A Fog Light Freezing Fog
8:15 AM 22.1 °F - 21.4 °F 97% 30.42 in 0.2 mi Calm Calm - N/A Fog Light Freezing Fog
8:55 AM 25.0 °F - 24.3 °F 97% 30.43 in 1.2 mi Calm Calm - N/A   Mist
9:15 AM 26.8 °F - 26.1 °F 97% 30.43 in 0.5 mi Calm Calm - N/A Fog Light Freezing Fog
9:35 AM 28.6 °F - 27.9 °F 97% 30.43 in 3.0 mi Calm Calm - N/A   Clear
10:55 AM 36.3 °F - 29.1 °F 75% 30.40 in 10.0 mi Calm Calm - N/A   Clear
11:15 AM 39.0 °F - 29.3 °F 68% 30.39 in 10.0 mi Calm Calm - N/A   Clear
11:35 AM 40.3 °F - 27.3 °F 60% 30.37 in 10.0 mi Calm Calm - N/A   Clear
12:15 PM 44.6 °F 43.1 °F 29.1 °F 55% 30.34 in 10.0 mi East 3.5 mph - N/A   Clear
12:35 PM 45.9 °F 44.6 °F 28.4 °F 51% 30.31 in 10.0 mi ENE 3.5 mph - N/A   Clear
12:55 PM 47.3 °F - 27.1 °F 46% 30.30 in 10.0 mi Calm Calm - N/A   Clear
1:15 PM 49.5 °F - 22.5 °F 35% 30.28 in 10.0 mi NE 4.6 mph - N/A   Clear
1:35 PM 50.0 °F - 22.1 °F 33% 30.27 in 10.0 mi ENE 3.5 mph - N/A   Clear
1:55 PM 51.3 °F - 24.1 °F 35% 30.25 in 10.0 mi NNE 3.5 mph - N/A   Clear
2:15 PM 52.2 °F - 22.5 °F 31% 30.23 in 10.0 mi NNE 3.5 mph - N/A   Clear
2:35 PM 53.4 °F - 20.3 °F 27% 30.22 in 10.0 mi East 3.5 mph - N/A   Clear
2:55 PM 54.5 °F - 17.1 °F 23% 30.21 in 10.0 mi Calm Calm - N/A   Clear
3:15 PM 54.3 °F - 16.0 °F 22% 30.20 in 10.0 mi North 3.5 mph - N/A   Clear
3:35 PM 54.7 °F - 18.0 °F 24% 30.20 in 10.0 mi ENE 5.8 mph - N/A   Clear
3:55 PM 55.0 °F - 18.0 °F 23% 30.19 in 10.0 mi NE 4.6 mph - N/A   Clear
4:15 PM 55.4 °F - 17.4 °F 23% 30.19 in 10.0 mi SE 3.5 mph - N/A   Clear
4:35 PM 53.8 °F - 19.2 °F 26% 30.19 in 10.0 mi SSE 4.6 mph - N/A   Clear
4:55 PM 52.3 °F - 20.5 °F 29% 30.19 in 10.0 mi South 3.5 mph - N/A   Clear
5:15 PM 49.1 °F - 24.8 °F 39% 30.19 in 10.0 mi Calm Calm - N/A   Clear
5:35 PM 44.8 °F - 27.1 °F 50% 30.19 in 10.0 mi Calm Calm - N/A   Clear
5:55 PM 41.0 °F - 30.7 °F 67% 30.20 in 10.0 mi Calm Calm - N/A   Clear
6:15 PM 36.7 °F - 30.2 °F 77% 30.21 in 10.0 mi Calm Calm - N/A   Clear
6:35 PM 36.0 °F - 30.9 °F 82% 30.21 in 10.0 mi Calm Calm - N/A   Clear
6:55 PM 33.4 °F - 30.2 °F 88% 30.22 in 10.0 mi Calm Calm - N/A   Clear
7:15 PM 33.8 °F - 29.3 °F 84% 30.22 in 10.0 mi Calm Calm - N/A   Clear
7:35 PM 32.0 °F - 30.0 °F 92% 30.22 in 10.0 mi Calm Calm - N/A   Clear
7:55 PM 31.3 °F - 29.3 °F 92% 30.23 in 10.0 mi Calm Calm - N/A   Clear
8:15 PM 31.5 °F - 30.2 °F 95% 30.23 in 10.0 mi Calm Calm - N/A   Clear
8:35 PM 30.2 °F - 28.8 °F 94% 30.23 in 10.0 mi Calm Calm - N/A   Clear
8:55 PM 29.5 °F - 28.2 °F 95% 30.23 in 10.0 mi Calm Calm - N/A   Clear
9:15 PM 28.8 °F - 27.5 °F 95% 30.22 in 10.0 mi Calm Calm - N/A   Clear
9:35 PM 28.9 °F - 27.7 °F 95% 30.22 in 10.0 mi Calm Calm - N/A   Clear
9:55 PM 28.0 °F - 26.8 °F 95% 30.22 in 10.0 mi Calm Calm - N/A   Clear
10:15 PM 27.5 °F - 26.4 °F 96% 30.22 in 10.0 mi Calm Calm - N/A   Clear
10:35 PM 27.7 °F - 26.6 °F 96% 30.22 in 10.0 mi Calm Calm - N/A   Clear
10:55 PM 27.1 °F - 25.7 °F 94% 30.21 in 10.0 mi Calm Calm - N/A   Clear
11:15 PM 26.6 °F - 25.3 °F 95% 30.21 in 10.0 mi Calm Calm - N/A   Clear
11:35 PM 26.1 °F - 24.6 °F 94% 30.21 in 10.0 mi Calm Calm - N/A   Clear
11:55 PM 25.7 °F - 24.4 °F 95% 30.21 in 10.0 mi Calm Calm - N/A   Clear